[[{"header":{"parameterUnit":"m.s-1","parameterCategory":1,"la1":30.2991,"la2":30.254,"lo1":-89.0895,"lo2":-89.0444,"dy":0.0017,"dx":0.0017,"nx":28,"ny":28,"refTime":"2023-10-19T21:00:00:Z","depth":0,"parameterNumber":2,"parameterNumberName":"U-component_of_WINDS"},"data":[0,0,0,0,0,0,0,0,0,0,0,0,0,0,0,0,0,0,0,0,0,0,0,0,0,0,0,0,0,0,0,0,0,0,0,0,0,0,0,0,0,0,0,0,0,0,0,0,0,0,0,0,0,0,0,0,0,0,1.996,1.996,0,1.9992,1.9992,1.9993,1.9947,1.9945,1.9943,1.9942,1.9973,1.9976,1.9978,0,0,0,0,0,0,0,0,0,0,0,0,0,1.9856,1.9858,1.996,1.996,1.9961,1.9992,1.9992,1.9993,1.9947,1.9945,1.9943,1.9941,1.9972,1.9975,1.9978,0,0,0,0,0,0,0,0,0,0,0,0,0,1.9896,1.9859,1.996,1.9941,1.994,1.9992,1.9993,1.9993,1.9947,1.9945,1.9942,1.994,1.9972,1.9975,1.9979,2.0049,0,0,1.9989,1.9991,0,0,0,0,0,0,0,0,1.9894,1.99,1.9944,1.9943,1.9941,1.9963,1.9967,2.0012,1.9948,1.9944,1.9942,1.9939,1.9972,1.9975,1.9986,2.0051,2.0052,1.999,1.9992,1.9993,1.9994,0,0,0,0,0,0,0,1.9891,1.9898,1.9972,1.9944,1.9943,1.9931,1.9934,1.9976,1.9971,1.9945,1.9941,1.9946,1.9971,1.9983,1.9987,2.0053,1.999,1.9993,1.9995,1.9996,2.0177,2.0179,0,0,0,0,0,0,1.9891,1.9896,1.9971,1.9973,1.9911,1.9935,1.9938,1.9958,1.9971,1.997,1.9948,1.9944,1.9978,1.9983,1.9988,2.0071,1.9993,1.9997,1.9999,2.0174,2.0177,2.018,0,0,0,0,0,0,1.9889,1.9898,1.997,1.9934,1.9942,1.9939,1.9962,1.996,1.9973,1.9973,1.9972,1.9962,1.9977,1.9983,2.0034,2.0071,1.9998,2.0001,2.0171,2.0175,2.0179,2.0239,0,0,0,0,0,0,1.9886,1.9897,1.9925,1.9935,1.9944,2.0017,1.9965,1.9963,1.9979,1.9974,1.9986,1.9986,1.9975,2.0029,2.0038,2.0075,2.0004,2.0167,2.0173,2.0177,2.0233,2.0244,2.0254,0,0,0,0,0,1.9882,1.994,1.9926,1.9936,1.9978,2.0019,2.0024,2.0012,1.9982,2.0009,2.001,1.9985,2.0066,2.0035,2.0044,2.0083,2.0165,2.0171,2.0177,2.0229,2.0242,2.0253,0,0,0,0,0,0,1.9933,1.9941,1.9926,1.9989,2.0004,2.0011,2.0045,2.0026,2.0049,2.0043,2.0026,2.0029,2.0084,2.0089,2.0054,2.0152,2.0111,2.0119,2.0147,2.016,2.017,2.0167,2.0007,0,0,0,0,0,1.9952,1.9985,1.999,2.0044,2.0053,2.0048,2.0065,2.0054,2.0069,2.0074,2.0079,2.0093,2.0122,2.0141,2.0168,2.0234,2.0236,2.0265,2.0276,2.0284,2.0291,2.0326,2.0339,2.02,2.02,2.02,0,0,1.999,1.9999,2.002,2.0055,2.0065,2.0099,2.0053,2.0091,2.0116,2.008,2.0129,2.0133,2.0148,2.0207,2.0234,2.0213,2.033,2.0291,2.0298,2.03,2.0333,2.0347,2.0358,2.0204,2.0203,2.0202,0,0,2.0077,2.0088,2.0134,2.0146,2.0162,2.0159,2.017,2.0181,2.0182,2.0231,2.0205,2.0234,2.0284,2.0296,2.0309,2.0402,2.038,2.0411,2.0463,2.0498,2.0509,2.0518,2.0551,2.0563,2.0418,2.0418,2.0418,0,2.0123,2.0173,2.016,2.02,2.0216,2.0186,2.0233,2.0244,2.0269,2.028,2.0257,2.0319,2.0327,2.0389,2.0412,2.0423,2.0435,2.0409,2.0508,2.0518,2.0527,2.0557,2.057,2.0422,2.0421,2.0421,2.0421,0,2.0228,2.0264,2.0299,2.0324,2.0344,2.0387,2.038,2.0402,2.039,2.0388,2.0439,2.0448,2.0475,2.049,2.0478,2.055,2.0536,2.0511,2.0469,2.0544,2.0572,2.0584,2.0427,2.0426,2.0425,2.0424,0,0,2.0346,2.0365,2.0378,2.0389,2.0405,2.0432,2.0474,2.0502,2.0521,2.0539,2.0573,2.0617,2.0594,2.0608,2.0597,2.0628,2.07,2.0599,2.0599,2.0617,2.078,2.0798,2.0812,2.0686,2.0689,2.069,2.0778,0,2.0432,2.0505,2.0495,2.0565,2.0597,2.057,2.0607,2.0621,2.0621,2.0648,2.0648,2.0679,2.0647,2.0655,2.0685,2.0685,2.0733,2.0679,2.0717,2.0719,2.0713,2.0827,2.0846,2.0928,2.0789,2.0791,2.0793,0,2.0542,2.0566,2.0639,2.0651,2.0664,2.0697,2.0722,2.0749,2.0764,2.0762,2.0779,2.0763,2.0805,2.0763,2.0819,2.0783,2.0798,2.0801,2.0804,2.0806,2.076,2.0831,2.0954,2.0966,2.081,2.0809,2.0808,0,2.062,2.067,2.072,2.073,2.0746,2.077,2.0777,2.079,2.0808,2.083,2.0841,2.0867,2.0882,2.0902,2.0894,2.0864,2.0952,2.0909,2.0951,2.0951,2.0969,2.0968,2.1096,2.0981,2.0981,2.0981,2.098,0,2.0717,2.0763,2.0755,2.0786,2.0836,2.0825,2.0875,2.0879,2.0891,2.0922,2.09,2.0929,2.0917,2.0945,2.0939,2.0986,2.0993,2.0992,2.099,2.0994,2.0994,2.1003,2.0996,2.0984,2.0983,2.0983,2.0982,0,2.0812,2.0809,2.0862,2.0873,2.0877,2.0913,2.0922,2.0951,2.095,2.099,2.0998,2.0997,2.1029,2.1023,2.1059,2.1054,2.1114,2.1105,2.1109,2.1106,2.1148,2.1144,2.1285,2.1303,2.1177,2.1179,2.118,0,2.0873,2.0907,2.0923,2.0942,2.0952,2.0984,2.1002,2.0992,2.1011,2.1032,2.1058,2.1089,2.1113,2.1166,2.1168,2.1195,2.1186,2.1234,2.119,2.1193,2.1186,2.1183,2.1187,2.1242,2.1243,2.1244,2.1245,0,2.0981,2.0979,2.1006,2.1034,2.1056,2.1077,2.1096,2.1113,2.1104,2.1128,2.1161,2.118,2.1217,2.1247,2.1273,2.128,2.1261,2.1259,2.127,2.1274,2.1275,2.1274,2.1132,2.1256,2.1255,2.1254,2.1253,2.1253,2.106,2.109,2.1106,2.1137,2.1151,2.1169,2.1197,2.12,2.1228,2.1257,2.125,2.1288,2.1303,2.1335,2.1346,2.1375,2.1357,2.1373,2.1377,2.138,2.1385,2.1271,2.1379,2.1379,2.1379,2.1379,2.1378,0,2.1167,2.1176,2.1206,2.1233,2.1258,2.124,2.126,2.1281,2.1315,2.1331,2.1356,2.1394,2.1424,2.1429,2.1457,2.148,2.1472,2.1487,2.1485,2.1487,2.14,2.1387,2.1493,2.1493,2.1493,2.1493,2.1493,2.1493,2.1225,2.1275,2.1274,2.133,2.1338,2.1376,2.1389,2.1405,2.1418,2.1462,2.1488,2.1491,2.1503,2.1532,2.1558,2.1559,2.157,2.1589,2.1586,2.1504,2.1493,2.1482,2.147,2.1592,2.1592,2.1671,2.1671,2.1672]},{"header":{"parameterUnit":"m.s-1","parameterCategory":1,"la1":30.2991,"la2":30.254,"lo1":-89.0895,"lo2":-89.0444,"dy":0.0017,"dx":0.0017,"nx":28,"ny":28,"refTime":"2023-10-19T21:00:00:Z","depth":0,"parameterNumber":3,"parameterNumberName":"V-component_of_WINDS"},"data":[0,0,0,0,0,0,0,0,0,0,0,0,0,0,0,0,0,0,0,0,0,0,0,0,0,0,0,0,0,0,0,0,0,0,0,0,0,0,0,0,0,0,0,0,0,0,0,0,0,0,0,0,0,0,0,0,0,0,3.8782,3.8783,0,3.8892,3.8893,3.8894,3.8884,3.8883,3.8881,3.8879,3.8987,3.8991,3.8995,0,0,0,0,0,0,0,0,0,0,0,0,0,3.8561,3.8565,3.8782,3.8783,3.8785,3.8892,3.8893,3.8894,3.8885,3.8883,3.8881,3.8879,3.8985,3.8991,3.8996,0,0,0,0,0,0,0,0,0,0,0,0,0,3.8662,3.8566,3.8782,3.8793,3.8795,3.8891,3.8893,3.8895,3.8885,3.8883,3.888,3.8878,3.8984,3.899,3.8997,3.9087,0,0,3.9017,3.902,0,0,0,0,0,0,0,0,3.8656,3.867,3.879,3.8792,3.8795,3.8872,3.8854,3.8959,3.8886,3.8851,3.8879,3.8876,3.895,3.8959,3.8985,3.9092,3.9097,3.9017,3.9021,3.9024,3.9026,0,0,0,0,0,0,0,3.8649,3.8666,3.8825,3.8792,3.8795,3.8791,3.8803,3.8874,3.8913,3.8854,3.8853,3.8866,3.8951,3.8979,3.8988,3.9099,3.9017,3.9023,3.9027,3.903,3.9288,3.929,0,0,0,0,0,0,3.864,3.866,3.8822,3.8829,3.8718,3.8797,3.881,3.885,3.8912,3.8919,3.8869,3.8866,3.8969,3.898,3.8992,3.9103,3.9024,3.903,3.9034,3.9285,3.9288,3.9291,0,0,0,0,0,0,3.8636,3.8655,3.8817,3.8744,3.8765,3.8804,3.8848,3.8853,3.8881,3.8924,3.893,3.889,3.8967,3.8982,3.9064,3.9107,3.9033,3.9039,3.9281,3.9286,3.929,3.9327,0,0,0,0,0,0,3.8629,3.8653,3.8689,3.8745,3.8769,3.8889,3.8851,3.8857,3.8893,3.889,3.8946,3.8952,3.8967,3.9055,3.9071,3.9115,3.9045,3.9278,3.9283,3.9288,3.9322,3.9332,3.934,0,0,0,0,0,3.8622,3.8693,3.8691,3.871,3.8814,3.8892,3.8905,3.8922,3.8896,3.8932,3.896,3.8951,3.91,3.9063,3.9081,3.9128,3.9275,3.9282,3.9288,3.9318,3.933,3.934,0,0,0,0,0,0,3.8639,3.8701,3.8699,3.8791,3.8837,3.889,3.8936,3.8934,3.8986,3.8981,3.8997,3.901,3.9093,3.9118,3.9077,3.922,3.9184,3.9194,3.92,3.9212,3.9221,3.9213,3.905,0,0,0,0,0,3.8654,3.8713,3.8764,3.884,3.8864,3.8896,3.893,3.8939,3.8986,3.9005,3.9039,3.9083,3.9141,3.9178,3.9232,3.9326,3.9338,3.9367,3.9376,3.9383,3.9392,3.9445,3.9458,3.9313,3.9312,3.9312,0,0,3.8685,3.8726,3.8762,3.8845,3.8881,3.8942,3.8912,3.8976,3.9021,3.9014,3.9095,3.9121,3.9172,3.9261,3.9302,3.9285,3.9435,3.9391,3.9397,3.9402,3.9453,3.9466,3.9479,3.9317,3.9316,3.9315,0,0,3.8772,3.8809,3.8878,3.8916,3.8972,3.8993,3.901,3.9065,3.9083,3.9164,3.9161,3.9213,3.9311,3.9348,3.938,3.9484,3.9478,3.9501,3.9549,3.96,3.9612,3.9622,3.966,3.9673,3.951,3.951,3.951,0,3.8803,3.8895,3.8913,3.898,3.9016,3.9015,3.9085,3.912,3.919,3.9215,3.9196,3.932,3.9354,3.9452,3.9478,3.9504,3.9523,3.9495,3.9609,3.9619,3.9629,3.9665,3.968,3.9512,3.9512,3.9512,3.9512,0,3.893,3.8994,3.9043,3.9114,3.9156,3.9224,3.9251,3.9292,3.9298,3.9321,3.9404,3.9446,3.951,3.9534,3.9539,3.9633,3.9621,3.9605,3.9569,3.9645,3.968,3.9694,3.9516,3.9515,3.9514,3.9514,0,0,3.903,3.9112,3.913,3.9163,3.9226,3.9275,3.9343,3.9407,3.9442,3.9491,3.9548,3.9632,3.9619,3.9655,3.9664,3.9709,3.979,3.9688,3.9689,3.9706,3.9898,3.991,3.9926,3.9787,3.9789,3.9792,3.9894,0,3.9124,3.9246,3.9265,3.9372,3.9432,3.9432,3.9491,3.9536,3.956,3.9613,3.9639,3.9699,3.9676,3.9698,3.9742,3.9771,3.9829,3.9764,3.984,3.9842,3.9827,3.9944,3.9957,4.0051,3.9908,3.991,3.9912,0,3.925,3.9305,3.9418,3.9475,3.9501,3.9554,3.9616,3.9667,3.9718,3.9732,3.9774,3.9779,3.9849,3.981,3.9907,3.9862,3.9894,3.9913,3.9917,3.9925,3.9882,3.9955,4.0082,4.0096,3.9933,3.9931,3.993,0,3.9313,3.9415,3.9496,3.9524,3.9592,3.963,3.966,3.9708,3.9747,3.98,3.9825,3.9886,3.9919,3.9965,3.9986,3.9956,4.0082,4.0045,4.0095,4.0095,4.0122,4.012,4.0256,4.0142,4.0142,4.0141,4.0141,0,3.9416,3.9485,3.9526,3.9576,3.9654,3.9675,3.9752,3.978,3.9824,3.9879,3.9883,3.9934,3.9959,4.0014,4.003,4.0109,4.0123,4.0137,4.014,4.0137,4.0135,4.0158,4.0152,4.0145,4.0144,4.0144,4.0143,0,3.9498,3.9529,3.9618,3.9676,3.9692,3.9747,3.9797,3.9845,3.987,3.994,3.9957,3.9995,4.0061,4.0087,4.0166,4.0177,4.0268,4.0266,4.0251,4.0252,4.0302,4.0297,4.0458,4.048,4.0351,4.0352,4.0353,0,3.9562,3.9616,3.9681,3.972,3.9751,3.9813,3.9853,3.9876,3.9917,3.9981,4.0022,4.0088,4.0142,4.0246,4.028,4.0342,4.0341,4.0394,4.035,4.0346,4.0343,4.034,4.0346,4.0401,4.0403,4.0404,4.0405,0,3.9673,3.9686,3.9744,3.9809,3.9857,3.9908,3.9958,3.9989,4.002,4.0066,4.0134,4.0176,4.0259,4.0325,4.0388,4.0418,4.0417,4.0418,4.0433,4.043,4.042,4.0428,4.0274,4.0414,4.0413,4.0412,4.0412,4.0412,3.9749,3.9797,3.9852,3.9917,3.9958,4.0005,4.0054,4.0086,4.0144,4.0214,4.0224,4.0298,4.0348,4.0434,4.0467,4.0524,4.051,4.0532,4.0538,4.0543,4.0547,4.0411,4.0536,4.0535,4.0535,4.0535,4.0535,0,3.986,3.9896,3.9956,4.0027,4.0079,4.0075,4.0131,4.0174,4.0239,4.0287,4.0342,4.0421,4.0485,4.0525,4.059,4.0628,4.063,4.0645,4.0642,4.0649,4.0555,4.0536,4.0643,4.0643,4.0643,4.0643,4.0643,4.0643,3.9924,4.0007,4.0027,4.013,4.0165,4.0238,4.0271,4.0314,4.0353,4.0442,4.0497,4.0523,4.0569,4.0637,4.0696,4.0706,4.073,4.0747,4.0756,4.0667,4.0656,4.0645,4.0627,4.0752,4.0752,4.0846,4.0846,4.0847]}]]